Terug naar catalogus

BREEZE-M DEB

TANK

ActiefHEO
NORAD 39124·DEBRIS·🇷🇺 Russia

Gelanceerd Mar 26, 2013 vanaf Baikonur Cosmodrome

Loading…

Volgende Passages (komende 24 uur)

TLE

VersSource: Space-Track

Epoch: Sep 13, 2026, 00:36 UTC

1 39124U 13012C   26256.02546511  .00002175  00000-0  57484-3 0  9997
2 39124  49.4680 160.7190 5529906 205.4251 111.8811  4.74152365224490

Volg BREEZE-M DEB in realtime met AllMySat

Download on the App Store